Weather in Zakhmet

Turkmenistan     37°46′07″N   62°32′05″E
temp.,
°C
wind,
m/s
gust,
m/s
humid.,
%
clouds,
%
prec.,
mm/h
press.,
hPa
HPBL,
m
12 august, fri
fri1223:00+25n56240 0.0 100956
02:00+23n58270 0.0 100997
05:00+22n57280 0.0 100987
08:00+26nne611250 0.0 1010382
11:00+33nne99180 0.0 10092022
14:00+36n89130 0.0 10062333
17:00+36n910110 0.0 10052455
20:00+31n611160 0.0 1006137
13 august, sat
sat1323:00+28n612200 0.0 1006141
02:00+25n58240 0.0 100786
05:00+24n59270 0.0 1007100
08:00+27nne611220 0.0 1008343
11:00+34nne78150 0.0 10082055
14:00+37n88120 0.0 10052480
17:00+37n88110 0.0 10032711
20:00+31nnw58150 0.0 100474
14 august, sun
sun1423:00+28nnw59190 0.0 1004107
02:00+26nnw56230 0.0 100353
05:00+24n45260 0.0 100449
08:00+28nne59230 0.0 1005291
11:00+36n77140 0.0 10052153
14:00+38n77110 0.0 10032744
17:00+38n77100 0.0 10022921
20:00+32nnw57140 0.0 100259
15 august, mon
mon1523:00+29nnw58160 0.0 100487
02:00+27nnw44210 0.0 100339
05:00+25n44250 0.0 100430
08:00+29n35200 0.0 1006183
11:00+36nnw56130 0.0 10052705
14:00+39nnw66100 0.0 10043095
17:00+39nnw8790 0.0 10023220
20:00+33nw56130 0.0 100349
16 august, tue
tue1623:00+30nw59170 0.0 100495
02:00+28nnw44210 0.0 100524
05:00+27nne45220 0.0 100542
08:00+30nne58210 0.0 1007243
11:00+37n78130 0.0 10062792
14:00+39n99110 0.0 10053095
17:00+39n99110 0.0 10043088
20:00+34n712150 0.0 1005160